This demonstration page uses our WeatherBlox Daily Observations layout. Learn more.

Left ArrowRight Arrow

Hourly Observations for November 26, 2021

Temp ( °F °C ) Dew Point ( °F °C ) Humidity (%) Winds ( mph kmh ) Pressure ( in mb ) Visibility ( mi km ) Precip ( " mm )
12:01 am 00:01 Cloudy 37 2.8 28 -2.2 70 70 W 9 15 30.15 1021 10 16 N/A
12:33 am 00:33 Cloudy 36 2.2 28 -2.2 73 73 WNW 12 19 30.15 1021 10 16 N/A
12:53 am 00:53 Cloudy 36 2.2 27 -2.8 70 70 WNW 20 31 30.14 1021 10 16 N/A
1:30 am 01:30 Cloudy 35 1.7 26 -3.3 70 70 WNW 14 22 30.16 1021 10 16 N/A
1:44 am 01:44 Cloudy 35 1.7 25 -3.9 67 67 WNW 13 20 30.17 1022 10 16 N/A
1:53 am 01:53 Cloudy 34 1.1 25 -3.9 70 70 WNW 12 19 30.14 1021 10 16 N/A
2:04 am 02:04 Cloudy 34 1.1 25 -3.9 70 70 WNW 15 24 30.17 1022 10 16 N/A
2:53 am 02:53 Cloudy 33 0.6 24 -4.4 70 70 WNW 15 24 30.16 1022 10 16 N/A
3:53 am 03:53 Cloudy 33 0.6 24 -4.4 70 70 WNW 16 26 30.17 1022 10 16 N/A
4:53 am 04:53 Cloudy 32 undefined 22 -5.6 66 66 WNW 10 17 30.19 1022 10 16 N/A
5:53 am 05:53 Cloudy 31 -0.6 22 -5.6 69 69 WNW 9 15 30.19 1022 10 16 N/A
6:53 am 06:53 Cloudy 30 -1.1 20 -6.7 66 66 WNW 14 22 30.21 1023 10 16 N/A
7:53 am 07:53 Mostly Cloudy 29 -1.7 19 -7.2 66 66 WNW 12 19 30.22 1024 10 16 N/A
8:30 am 08:30 Mostly Cloudy 29 -1.7 19 -7.2 66 66 W 7 11 30.26 1025 10 16 N/A
8:49 am 08:49 Cloudy 28 -2 19 -7 69 69 WNW 9 15 30.26 1025 10 16 N/A
8:53 am 08:53 Cloudy 29 -1.7 19 -7.2 66 66 WNW 8 13 30.24 1024 10 16 N/A
9:53 am 09:53 Cloudy 30 -1.1 19 -7.2 64 64 WNW 17 28 30.27 1025 10 16 N/A
10:53 am 10:53 Partly Cloudy 30 -1.1 19 -7.2 64 64 W 8 13 30.27 1025 10 16 N/A
11:53 am 11:53 Partly Cloudy 32 undefined 18 -7.8 56 56 WNW 13 20 30.26 1025 10 16 N/A
12:53 pm 12:53 Mostly Cloudy 35 1.7 19 -7.2 52 52 WNW 13 20 30.24 1024 10 16 N/A
1:53 pm 13:53 Mostly Sunny 33 0.6 19 -7.2 56 56 WNW 12 19 30.20 1023 10 16 N/A
2:53 pm 14:53 Sunny 35 1.7 18 -7.8 50 50 VRB 7 11 30.20 1023 10 16 N/A
3:53 pm 15:53 Cloudy 35 1.7 18 -7.8 50 50 NW 7 11 30.17 1022 10 16 N/A
4:53 pm 16:53 Cloudy 33 0.6 18 -7.8 54 54 WNW 7 11 30.18 1022 10 16 N/A
5:53 pm 17:53 Cloudy 32 undefined 19 -7.2 59 59 W 5 7 30.18 1022 10 16 N/A
6:53 pm 18:53 Cloudy 32 undefined 20 -6.7 61 61 N N/A 30.17 1022 10 16 N/A
7:53 pm 19:53 Cloudy 32 undefined 19 -7.2 59 59 W 5 7 30.17 1022 10 16 N/A
8:53 pm 20:53 Cloudy 31 -0.6 20 -6.7 64 64 W 3 6 30.16 1022 10 16 N/A
9:53 pm 21:53 Cloudy 31 -0.6 19 -7.2 61 61 N N/A 30.15 1021 10 16 N/A
10:53 pm 22:53 Mostly Cloudy 30 -1.1 21 -6.1 69 69 N N/A 30.15 1021 10 16 N/A
11:53 pm 23:53 Partly Cloudy 28 -2.2 20 -6.7 72 72 N N/A 30.14 1021 10 16 N/A

Powered by AerisWeather